[[{"header":{"parameterUnit":"m.s-1","parameterCategory":1,"la1":30.2991,"la2":30.254,"lo1":-89.0895,"lo2":-89.0444,"dy":0.0017,"dx":0.0017,"nx":28,"ny":28,"refTime":"2025-01-13T03:00:00:Z","depth":0,"parameterNumber":2,"parameterNumberName":"U-component_of_WINDS"},"data":[0,0,0,0,0,0,0,0,0,0,0,0,0,0,0,0,0,0,0,0,0,0,0,0,0,0,0,0,0,0,0,0,0,0,0,0,0,0,0,0,0,0,0,0,0,0,0,0,0,0,0,0,0,0,0,0,0,0,-2.7579,-2.7579,0,-2.7616,-2.7617,-2.7617,-2.7546,-2.7543,-2.7541,-2.7539,-2.7579,-2.7582,-2.7585,0,0,0,0,0,0,0,0,0,0,0,0,0,-2.7447,-2.745,-2.7579,-2.7579,-2.758,-2.7616,-2.7617,-2.7617,-2.7546,-2.7543,-2.754,-2.7538,-2.7578,-2.7582,-2.7585,0,0,0,0,0,0,0,0,0,0,0,0,0,-2.7496,-2.7451,-2.7579,-2.7549,-2.7546,-2.7616,-2.7617,-2.7617,-2.7547,-2.7543,-2.754,-2.7536,-2.7576,-2.7581,-2.7586,-2.7687,0,0,-2.7601,-2.7603,0,0,0,0,0,0,0,0,-2.7494,-2.7501,-2.7553,-2.7551,-2.7548,-2.7573,-2.7585,-2.7641,-2.7548,-2.7547,-2.7539,-2.7535,-2.758,-2.7584,-2.7599,-2.7689,-2.7691,-2.7601,-2.7604,-2.7607,-2.7608,0,0,0,0,0,0,0,-2.749,-2.7499,-2.7594,-2.7554,-2.7551,-2.7534,-2.7537,-2.7595,-2.7583,-2.7547,-2.7541,-2.7547,-2.7578,-2.7594,-2.7599,-2.7691,-2.7601,-2.7606,-2.7609,-2.7611,-2.7867,-2.787,0,0,0,0,0,0,-2.749,-2.7497,-2.7593,-2.7595,-2.7512,-2.7539,-2.7542,-2.7569,-2.7582,-2.758,-2.755,-2.7543,-2.7588,-2.7594,-2.7601,-2.7721,-2.7606,-2.7611,-2.7614,-2.7863,-2.7867,-2.7872,0,0,0,0,0,0,-2.7488,-2.75,-2.7591,-2.7544,-2.7555,-2.7545,-2.7575,-2.7571,-2.7588,-2.7584,-2.7582,-2.7569,-2.7585,-2.7594,-2.7666,-2.7721,-2.7613,-2.7618,-2.7858,-2.7864,-2.787,-2.7962,0,0,0,0,0,0,-2.7484,-2.7499,-2.7538,-2.7546,-2.7558,-2.7656,-2.7578,-2.7574,-2.7596,-2.7588,-2.7602,-2.76,-2.7583,-2.7659,-2.7671,-2.7726,-2.7622,-2.7853,-2.7861,-2.7868,-2.7954,-2.797,-2.7984,0,0,0,0,0,-2.748,-2.7562,-2.754,-2.7552,-2.7605,-2.766,-2.7666,-2.7644,-2.7601,-2.7639,-2.7637,-2.76,-2.7713,-2.7667,-2.768,-2.7737,-2.785,-2.7859,-2.7867,-2.7947,-2.7967,-2.7983,0,0,0,0,0,0,-2.7562,-2.7563,-2.7538,-2.7625,-2.7643,-2.7647,-2.7696,-2.7666,-2.7696,-2.7687,-2.7659,-2.7663,-2.7741,-2.7746,-2.7695,-2.7836,-2.7774,-2.7786,-2.783,-2.7849,-2.7864,-2.7862,-2.7626,0,0,0,0,0,-2.759,-2.7633,-2.7632,-2.7709,-2.7719,-2.7706,-2.7729,-2.771,-2.7727,-2.7734,-2.7737,-2.7756,-2.7795,-2.7822,-2.7858,-2.7953,-2.7955,-2.7998,-2.8013,-2.8026,-2.8037,-2.8088,-2.8108,-2.79,-2.79,-2.79,0,0,-2.7649,-2.7654,-2.7684,-2.7726,-2.7737,-2.7783,-2.7713,-2.7765,-2.7799,-2.7742,-2.7811,-2.7814,-2.7832,-2.7917,-2.7954,-2.7923,-2.8094,-2.8037,-2.8047,-2.8051,-2.8099,-2.8119,-2.8136,-2.7906,-2.7905,-2.7904,0,0,-2.778,-2.7788,-2.7854,-2.7866,-2.7884,-2.7874,-2.789,-2.7899,-2.7898,-2.7966,-2.7925,-2.7965,-2.8033,-2.8048,-2.8065,-2.82,-2.8168,-2.8213,-2.8292,-2.8342,-2.8359,-2.8373,-2.8423,-2.8441,-2.8223,-2.8223,-2.8224,0,-2.7851,-2.7919,-2.7891,-2.7946,-2.7966,-2.7916,-2.7982,-2.7995,-2.8024,-2.8039,-2.8004,-2.8088,-2.8097,-2.8185,-2.8218,-2.8232,-2.825,-2.8212,-2.8358,-2.8372,-2.8385,-2.8432,-2.8451,-2.8229,-2.8228,-2.8228,-2.8227,0,-2.8006,-2.8053,-2.8104,-2.8133,-2.8158,-2.8219,-2.8201,-2.8229,-2.8208,-2.8202,-2.8272,-2.8281,-2.8318,-2.8337,-2.8316,-2.8422,-2.8402,-2.8363,-2.8301,-2.8411,-2.8455,-2.8473,-2.8237,-2.8235,-2.8233,-2.8232,0,0,-2.8192,-2.8203,-2.8223,-2.8235,-2.825,-2.8287,-2.8344,-2.838,-2.8406,-2.8426,-2.8475,-2.8533,-2.8497,-2.8516,-2.8496,-2.854,-2.8648,-2.8495,-2.8495,-2.8525,-2.8766,-2.8797,-2.8818,-2.8625,-2.8629,-2.8631,-2.8764,0,-2.8324,-2.8423,-2.84,-2.8499,-2.8542,-2.8494,-2.8544,-2.8559,-2.8555,-2.8592,-2.8586,-2.8629,-2.8577,-2.8588,-2.8629,-2.8626,-2.8696,-2.8616,-2.8672,-2.8674,-2.8671,-2.884,-2.8873,-2.8999,-2.8781,-2.8784,-2.8786,0,-2.8491,-2.8518,-2.8621,-2.8628,-2.8646,-2.8692,-2.8722,-2.8757,-2.8773,-2.8767,-2.8787,-2.8759,-2.8816,-2.8751,-2.8831,-2.8777,-2.8797,-2.8799,-2.8804,-2.881,-2.8739,-2.8853,-2.9038,-2.9058,-2.8813,-2.881,-2.8809,0,-2.8619,-2.868,-2.875,-2.8762,-2.8772,-2.8805,-2.8811,-2.8823,-2.8845,-2.8872,-2.8886,-2.8919,-2.8938,-2.8964,-2.8945,-2.8899,-2.9028,-2.8961,-2.9025,-2.9026,-2.9057,-2.9055,-2.925,-2.9067,-2.9066,-2.9066,-2.9066,0,-2.8769,-2.8835,-2.8807,-2.8851,-2.8922,-2.8894,-2.8966,-2.8966,-2.8977,-2.9019,-2.8978,-2.9019,-2.8991,-2.903,-2.9015,-2.9083,-2.9092,-2.9089,-2.9085,-2.9094,-2.9095,-2.9109,-2.9101,-2.9071,-2.907,-2.9069,-2.9068,0,-2.8925,-2.8909,-2.8982,-2.8985,-2.8987,-2.904,-2.9043,-2.9083,-2.9074,-2.9129,-2.914,-2.9128,-2.9171,-2.9154,-2.92,-2.919,-2.9278,-2.9261,-2.9273,-2.9269,-2.9335,-2.933,-2.9547,-2.9575,-2.9372,-2.9374,-2.9376,0,-2.9024,-2.9073,-2.908,-2.9106,-2.9114,-2.9155,-2.9178,-2.9151,-2.9177,-2.9197,-2.9235,-2.9274,-2.9305,-2.9376,-2.9371,-2.9406,-2.9391,-2.9465,-2.9396,-2.9404,-2.9394,-2.9392,-2.9398,-2.9479,-2.9482,-2.9484,-2.9485,0,-2.9201,-2.919,-2.9224,-2.9255,-2.9283,-2.9307,-2.9327,-2.935,-2.9324,-2.9354,-2.9398,-2.9421,-2.9467,-2.9507,-2.9538,-2.9544,-2.9511,-2.9506,-2.9523,-2.9534,-2.954,-2.9539,-2.9312,-2.9502,-2.95,-2.9499,-2.9498,-2.9498,-2.9332,-2.9373,-2.9385,-2.9425,-2.9436,-2.9456,-2.9494,-2.9489,-2.9525,-2.956,-2.9542,-2.9593,-2.9606,-2.9643,-2.9654,-2.9693,-2.9664,-2.9688,-2.9695,-2.9702,-2.9711,-2.9532,-2.9698,-2.9698,-2.9697,-2.9697,-2.9696,0,-2.9508,-2.9513,-2.9549,-2.9578,-2.9609,-2.9573,-2.9593,-2.9622,-2.9666,-2.9681,-2.9711,-2.9761,-2.9799,-2.9796,-2.9832,-2.9864,-2.9849,-2.9874,-2.9872,-2.9875,-2.9734,-2.9717,-2.9885,-2.9885,-2.9885,-2.9885,-2.9885,-2.9885,-2.9604,-2.9673,-2.9663,-2.9737,-2.9741,-2.979,-2.9804,-2.9822,-2.9834,-2.9891,-2.9922,-2.9919,-2.9928,-2.9963,-2.9996,-2.9994,-3.001,-3.004,-3.0033,-2.9903,-2.9884,-2.9867,-2.985,-3.0044,-3.0044,-3.0171,-3.0172,-3.0173]},{"header":{"parameterUnit":"m.s-1","parameterCategory":1,"la1":30.2991,"la2":30.254,"lo1":-89.0895,"lo2":-89.0444,"dy":0.0017,"dx":0.0017,"nx":28,"ny":28,"refTime":"2025-01-13T03:00:00:Z","depth":0,"parameterNumber":3,"parameterNumberName":"V-component_of_WINDS"},"data":[0,0,0,0,0,0,0,0,0,0,0,0,0,0,0,0,0,0,0,0,0,0,0,0,0,0,0,0,0,0,0,0,0,0,0,0,0,0,0,0,0,0,0,0,0,0,0,0,0,0,0,0,0,0,0,0,0,0,-5.7835,-5.7836,0,-5.7889,-5.7889,-5.789,-5.7805,-5.7802,-5.7799,-5.7797,-5.7848,-5.7852,-5.7856,0,0,0,0,0,0,0,0,0,0,0,0,0,-5.7655,-5.7659,-5.7835,-5.7836,-5.7836,-5.7888,-5.7889,-5.789,-5.7806,-5.7802,-5.7799,-5.7795,-5.7847,-5.7851,-5.7856,0,0,0,0,0,0,0,0,0,0,0,0,0,-5.7724,-5.766,-5.7835,-5.7801,-5.7798,-5.7888,-5.7889,-5.789,-5.7806,-5.7802,-5.7798,-5.7794,-5.7845,-5.7851,-5.7857,-5.7982,0,0,-5.7876,-5.7878,0,0,0,0,0,0,0,0,-5.772,-5.773,-5.7805,-5.7803,-5.78,-5.7836,-5.7844,-5.7921,-5.7808,-5.7803,-5.7797,-5.7792,-5.7847,-5.7853,-5.7872,-5.7984,-5.7986,-5.7876,-5.788,-5.7882,-5.7884,0,0,0,0,0,0,0,-5.7715,-5.7727,-5.7856,-5.7806,-5.7803,-5.7781,-5.7786,-5.7859,-5.7849,-5.7803,-5.7797,-5.7805,-5.7845,-5.7867,-5.7873,-5.7987,-5.7876,-5.7881,-5.7885,-5.7888,-5.8204,-5.8208,0,0,0,0,0,0,-5.7715,-5.7724,-5.7854,-5.7858,-5.7749,-5.7788,-5.7793,-5.7829,-5.7848,-5.7847,-5.7809,-5.7801,-5.7858,-5.7866,-5.7874,-5.8022,-5.7882,-5.7888,-5.7892,-5.8199,-5.8205,-5.821,0,0,0,0,0,0,-5.7712,-5.7728,-5.7852,-5.7789,-5.7803,-5.7796,-5.7836,-5.7832,-5.7854,-5.7852,-5.7849,-5.7833,-5.7855,-5.7866,-5.7956,-5.8023,-5.7891,-5.7896,-5.8193,-5.8201,-5.8207,-5.8319,0,0,0,0,0,0,-5.7707,-5.7727,-5.7775,-5.7791,-5.7807,-5.7934,-5.784,-5.7836,-5.7865,-5.7855,-5.7874,-5.7873,-5.7853,-5.7947,-5.7962,-5.8029,-5.7901,-5.8187,-5.8197,-5.8205,-5.8309,-5.8329,-5.8345,0,0,0,0,0,-5.7701,-5.7804,-5.7778,-5.7794,-5.7868,-5.7938,-5.7947,-5.7923,-5.7871,-5.7919,-5.7917,-5.7872,-5.8013,-5.7957,-5.7973,-5.8043,-5.8183,-5.8194,-5.8204,-5.8301,-5.8325,-5.8345,0,0,0,0,0,0,-5.7795,-5.7805,-5.7777,-5.7888,-5.7913,-5.7924,-5.7984,-5.7949,-5.7989,-5.7978,-5.7945,-5.795,-5.8047,-5.8053,-5.7991,-5.8164,-5.8089,-5.8103,-5.8157,-5.818,-5.8197,-5.8194,-5.7906,0,0,0,0,0,-5.7829,-5.7887,-5.7892,-5.7989,-5.8004,-5.7992,-5.8022,-5.8001,-5.8025,-5.8035,-5.804,-5.8064,-5.8113,-5.8146,-5.8192,-5.8309,-5.8312,-5.8364,-5.8383,-5.8398,-5.8411,-5.8473,-5.8497,-5.8245,-5.8245,-5.8245,0,0,-5.7899,-5.7912,-5.795,-5.8009,-5.8026,-5.8085,-5.8001,-5.8068,-5.8111,-5.8044,-5.813,-5.8135,-5.8159,-5.8264,-5.831,-5.8272,-5.8481,-5.8411,-5.8423,-5.8428,-5.8486,-5.851,-5.8531,-5.8252,-5.8251,-5.825,0,0,-5.8058,-5.8073,-5.8157,-5.8176,-5.8203,-5.8194,-5.8214,-5.823,-5.8231,-5.8317,-5.8268,-5.8318,-5.8404,-5.8424,-5.8445,-5.8611,-5.8571,-5.8626,-5.8722,-5.8783,-5.8803,-5.882,-5.888,-5.8901,-5.8639,-5.8639,-5.8639,0,-5.8141,-5.8231,-5.8203,-5.8274,-5.8301,-5.8244,-5.8327,-5.8346,-5.8386,-5.8406,-5.8363,-5.847,-5.8482,-5.859,-5.8631,-5.865,-5.8671,-5.8624,-5.8802,-5.882,-5.8835,-5.8892,-5.8914,-5.8646,-5.8645,-5.8644,-5.8644,0,-5.8332,-5.8395,-5.8458,-5.85,-5.8534,-5.8611,-5.8594,-5.8631,-5.8607,-5.8603,-5.869,-5.8703,-5.875,-5.8774,-5.8751,-5.8879,-5.8855,-5.8808,-5.8732,-5.8867,-5.8919,-5.894,-5.8655,-5.8653,-5.8651,-5.8649,0,0,-5.8552,-5.8578,-5.8602,-5.8621,-5.8646,-5.8693,-5.8766,-5.8814,-5.8846,-5.8875,-5.8936,-5.9009,-5.8966,-5.899,-5.8968,-5.9022,-5.9153,-5.8968,-5.8968,-5.9003,-5.9295,-5.9331,-5.9356,-5.9126,-5.913,-5.9133,-5.9293,0,-5.8711,-5.884,-5.8817,-5.8942,-5.8999,-5.8945,-5.9009,-5.903,-5.9028,-5.9075,-5.9071,-5.9125,-5.9063,-5.9078,-5.9128,-5.9126,-5.9211,-5.9114,-5.9181,-5.9184,-5.9178,-5.9384,-5.9422,-5.9572,-5.9313,-5.9317,-5.9319,0,-5.8914,-5.8952,-5.9083,-5.9099,-5.9122,-5.9181,-5.9222,-5.9268,-5.9291,-5.9285,-5.9312,-5.928,-5.9352,-5.9274,-5.9372,-5.9307,-5.9332,-5.9335,-5.9341,-5.9347,-5.9261,-5.9396,-5.962,-5.9643,-5.9351,-5.9349,-5.9346,0,-5.9062,-5.9146,-5.9235,-5.9252,-5.9274,-5.9316,-5.9326,-5.9345,-5.9375,-5.941,-5.9429,-5.9472,-5.9496,-5.9529,-5.9509,-5.9454,-5.961,-5.9531,-5.9607,-5.9608,-5.9643,-5.9642,-5.9876,-5.9659,-5.9658,-5.9658,-5.9658,0,-5.9242,-5.9325,-5.9302,-5.9358,-5.9447,-5.942,-5.9509,-5.9513,-5.953,-5.9584,-5.9539,-5.959,-5.956,-5.9608,-5.9592,-5.9676,-5.9687,-5.9684,-5.9679,-5.9689,-5.9689,-5.9705,-5.9695,-5.9664,-5.9663,-5.9662,-5.966,0,-5.9424,-5.9413,-5.9506,-5.9519,-5.9524,-5.959,-5.96,-5.965,-5.9644,-5.9713,-5.9727,-5.9717,-5.9772,-5.9755,-5.9813,-5.9803,-5.9909,-5.989,-5.9902,-5.9898,-5.9975,-5.9969,-6.0229,-6.0261,-6.0023,-6.0025,-6.0027,0,-5.954,-5.9603,-5.9622,-5.9656,-5.967,-5.9724,-5.9755,-5.9729,-5.9763,-5.9793,-5.984,-5.9891,-5.9931,-6.002,-6.0017,-6.0062,-6.0044,-6.0132,-6.005,-6.0058,-6.0046,-6.0043,-6.0049,-6.0148,-6.0151,-6.0153,-6.0155,0,-5.9748,-5.9739,-5.9786,-5.9831,-5.9869,-5.9902,-5.9932,-5.9961,-5.9937,-5.9977,-6.0033,-6.0064,-6.0124,-6.0175,-6.0215,-6.0223,-6.0186,-6.0181,-6.0201,-6.0212,-6.0217,-6.0216,-5.9948,-6.0175,-6.0173,-6.0172,-6.0171,-6.017,-5.9901,-5.9954,-5.9976,-6.0029,-6.0049,-6.0077,-6.0126,-6.0126,-6.0173,-6.0221,-6.0202,-6.0267,-6.0287,-6.0337,-6.0352,-6.0401,-6.0367,-6.0396,-6.0403,-6.0411,-6.0421,-6.0208,-6.0408,-6.0407,-6.0406,-6.0406,-6.0406,0,-6.0107,-6.0119,-6.0168,-6.0211,-6.0253,-6.0214,-6.0245,-6.0282,-6.034,-6.0362,-6.0402,-6.0467,-6.0515,-6.0517,-6.0562,-6.0601,-6.0585,-6.0614,-6.0611,-6.0614,-6.0449,-6.0427,-6.0626,-6.0626,-6.0626,-6.0626,-6.0626,-6.0626,-6.0219,-6.0307,-6.0301,-6.0397,-6.0408,-6.0472,-6.0492,-6.0518,-6.0536,-6.0611,-6.0652,-6.0652,-6.0666,-6.0712,-6.0755,-6.0754,-6.0773,-6.0809,-6.0802,-6.0648,-6.0626,-6.0605,-6.0584,-6.0813,-6.0814,-6.0963,-6.0964,-6.0965]}]]